Rochelle, IL

7:52 PM CST on November 11, 2019 (GMT -0600)
Rochelle

Weather History for KRPJ - September, 2019

Change the Weather History Date:

Thursday, September 12, 2019

  Actual Average (WUND) Record (WUND)
Temperature  
Mean Temperature 74 °F -  
Max Temperature 83 °F - - (-1)
Min Temperature 64 °F - - (-1)
Cooling Degree Days 8    
Growing Degree Days 24 (Base 50)    
Moisture  
Dew Point 71 °F    
Average Humidity 94    
Maximum Humidity 100    
Minimum Humidity 78    
Precipitation  
Precipitation 0.66 in - - ()
Sea Level Pressure  
Sea Level Pressure 30.06 in    
Wind  
Wind Speed 7 mph ()    
Max Wind Speed 18 mph    
Max Gust Speed 40 mph    
Visibility 7.4 miles    
Events Fog , Rain , Thunderstorm    
Averages and records for this station are not official NWS values.
T = Trace of Precipitation, MM = Missing Value Source: Averaged Metar Reports

Daily Weather History Graph

Daily Weather History Graph

Search for Another Location

Airport or City:

Astronomy

Sep. 12, 2019 Rise Set
Actual Time 6:33 AM CDT 7:11 PM CDT
Civil Twilight 6:05 AM CDT 7:39 PM CDT
Nautical Twilight 5:31 AM CDT 8:12 PM CDT
Astronomical Twilight 4:57 AM CDT 8:46 PM CDT
Moon 6:57 PM CDT 4:50 AM CDT
Length of Visible Light 13h 34m
Length of Day
12h 38m
Waxing Gibbous, 98% of the Moon is Illuminated
Sep 12
Waxing Gibbous
Sep 13
Full
Sep 21
Last Quarter
Sep 28
New
Oct 5
First Quarter

Hourly Weather History & Observations

Time (CDT) Temp. Heat Index Dew Point Humidity Pressure Visibility Wind Dir Wind Speed Gust Speed Precip Events Conditions
12:15 AM 70.9 °F - 68.5 °F 92% 30.06 in 10.0 mi East 6.9 mph - N/A   Clear
12:35 AM 69.6 °F - 68.7 °F 97% 30.05 in 10.0 mi ESE 6.9 mph - N/A   Clear
12:55 AM 69.4 °F - 68.9 °F 98% 30.05 in 10.0 mi SE 6.9 mph - N/A Thunderstorm Scattered Clouds
1:15 AM 69.6 °F - 68.9 °F 98% 30.04 in 10.0 mi SSE 6.9 mph - N/A Thunderstorm Scattered Clouds
1:35 AM 70.7 °F - 69.8 °F 97% 30.07 in 10.0 mi Calm Calm - N/A   Mostly Cloudy
1:55 AM 71.2 °F - 69.8 °F 95% 30.08 in 10.0 mi North 6.9 mph - N/A   Overcast
2:15 AM 70.7 °F - 69.8 °F 97% 30.08 in 10.0 mi NE 8.1 mph - N/A   Overcast
2:35 AM 70.0 °F - 69.8 °F 99% 30.08 in 10.0 mi ENE 6.9 mph - N/A   Mostly Cloudy
2:55 AM 69.6 °F - 69.3 °F 99% 30.08 in 10.0 mi ESE 5.8 mph - N/A   Scattered Clouds
3:15 AM 68.9 °F - 68.9 °F 100% 30.08 in 10.0 mi ENE 4.6 mph - N/A   Scattered Clouds
3:35 AM 68.7 °F - 68.5 °F 99% 30.09 in 10.0 mi ENE 4.6 mph - N/A   Scattered Clouds
3:55 AM 68.9 °F - 68.7 °F 99% 30.09 in 10.0 mi East 5.8 mph - N/A   Mostly Cloudy
4:15 AM 68.5 °F - 68.4 °F 99% 30.09 in 10.0 mi ESE 6.9 mph - N/A   Overcast
4:35 AM 68.9 °F - 68.4 °F 98% 30.09 in 10.0 mi ESE 6.9 mph - N/A   Mostly Cloudy
4:55 AM 68.4 °F - 68.2 °F 99% 30.09 in 10.0 mi ESE 3.5 mph - N/A   Scattered Clouds
5:15 AM 67.8 °F - 67.6 °F 99% 30.09 in 10.0 mi Calm Calm - N/A   Clear
5:55 AM 66.7 °F - 66.7 °F 100% 30.10 in 10.0 mi NNE 4.6 mph - N/A   Clear
6:15 AM 66.6 °F - 66.6 °F 100% 30.11 in 7.0 mi NE 5.8 mph - N/A   Clear
6:35 AM 66.0 °F - 66.0 °F 100% 30.11 in 2.5 mi NE 3.5 mph - N/A   Scattered Clouds
6:55 AM 66.2 °F - 66.2 °F 100% 30.12 in 2.0 mi NE 5.8 mph - N/A   Overcast
7:15 AM 65.5 °F - 65.5 °F 100% 30.12 in 0.5 mi NE 6.9 mph - N/A Fog Fog
7:35 AM 64.9 °F - 64.9 °F 100% 30.11 in 0.5 mi NE 5.8 mph - N/A Fog Fog
7:55 AM 65.3 °F - 65.3 °F 100% 30.12 in 0.2 mi NE 5.8 mph - N/A Fog Fog
8:15 AM 64.9 °F - 64.9 °F 100% 30.12 in 0.2 mi NE 8.1 mph - N/A Fog Fog
8:35 AM 65.7 °F - 65.7 °F 100% 30.11 in 0.5 mi NE 6.9 mph - N/A Fog Fog
8:55 AM 66.0 °F - 66.0 °F 100% 30.11 in 1.0 mi NE 8.1 mph - N/A   Overcast
9:15 AM 66.7 °F - 66.7 °F 100% 30.11 in 2.5 mi ENE 8.1 mph - N/A   Overcast
9:35 AM 67.1 °F - 67.1 °F 100% 30.12 in 4.0 mi ENE 9.2 mph - N/A   Overcast
9:55 AM 68.7 °F - 68.7 °F 100% 30.12 in 7.0 mi East 8.1 mph - N/A   Overcast
10:15 AM 70.0 °F - 68.7 °F 96% 30.11 in 7.0 mi ENE 8.1 mph - N/A   Overcast
10:35 AM 72.5 °F - 70.2 °F 92% 30.11 in 7.0 mi ENE 8.1 mph - N/A   Mostly Cloudy
10:55 AM 76.1 °F - 72.7 °F 89% 30.10 in 10.0 mi East 8.1 mph - N/A   Mostly Cloudy
11:15 AM 77.2 °F - 73.0 °F 87% 30.09 in 10.0 mi ESE 8.1 mph - N/A Thunderstorm Scattered Clouds
11:35 AM 78.4 °F - 73.9 °F 86% 30.09 in 10.0 mi ESE 5.8 mph - N/A   Scattered Clouds
11:55 AM 80.2 °F 85.2 °F 74.5 °F 83% 30.09 in 10.0 mi SE 4.6 mph - N/A   Scattered Clouds
12:15 PM 81.3 °F 87.4 °F 75.0 °F 81% 30.09 in 10.0 mi SSE 4.6 mph - N/A   Scattered Clouds
12:35 PM 81.3 °F 87.4 °F 74.8 °F 81% 30.09 in 10.0 mi East 3.5 mph - N/A   Mostly Cloudy
12:55 PM 82.4 °F 89.8 °F 75.6 °F 80% 30.08 in 10.0 mi ESE 6.9 mph - N/A   Mostly Cloudy
1:15 PM 83.3 °F 92.1 °F 76.6 °F 80% 30.08 in 10.0 mi East 8.1 mph - N/A   Mostly Cloudy
1:35 PM 81.7 °F 88.7 °F 75.9 °F 83% 30.07 in 7.0 mi East 11.5 mph - N/A   Overcast
1:55 PM 80.4 °F 85.8 °F 75.2 °F 84% 30.06 in 7.0 mi East 15.0 mph 19.6 mph N/A   Overcast
2:15 PM 81.9 °F 89.2 °F 76.1 °F 83% 30.05 in 7.0 mi ESE 13.8 mph - N/A Thunderstorm Thunderstorm
2:35 PM 79.0 °F - 74.3 °F 85% 30.05 in 5.0 mi East 9.2 mph 20.7 mph N/A Thunderstorm Unknown
2:55 PM 75.4 °F - 74.7 °F 98% 30.07 in 2.5 mi North 11.5 mph - 0.16 in Rain , Thunderstorm Thunderstorms and Rain
3:15 PM 77.2 °F - 75.0 °F 93% 30.05 in 5.0 mi NE 9.2 mph - N/A Thunderstorm Scattered Clouds
3:35 PM 78.4 °F - 75.2 °F 90% 30.04 in 10.0 mi East 10.4 mph 17.3 mph N/A Thunderstorm Scattered Clouds
3:55 PM 79.2 °F - 75.2 °F 88% 30.04 in 10.0 mi East 12.7 mph - N/A   Clear
4:15 PM 79.9 °F - 73.0 °F 80% 30.02 in 10.0 mi ESE 11.5 mph - N/A   Clear
4:35 PM 80.8 °F 85.6 °F 73.2 °F 78% 30.01 in 10.0 mi ESE 8.1 mph - N/A   Clear
4:55 PM 80.1 °F 84.5 °F 73.6 °F 81% 30.00 in 10.0 mi ESE 8.1 mph - N/A   Clear
5:15 PM 79.7 °F - 73.0 °F 80% 29.99 in 10.0 mi ESE 6.9 mph - N/A   Clear
6:15 PM 80.4 °F 86.3 °F 76.1 °F 87% 30.00 in 10.0 mi ESE 8.1 mph - N/A   Clear
6:35 PM 78.8 °F - 75.4 °F 89% 30.01 in 7.0 mi ESE 8.1 mph - N/A   Clear
6:55 PM 76.6 °F - 74.3 °F 92% 30.01 in 7.0 mi East 11.5 mph - N/A   Clear
7:15 PM 75.2 °F - 74.3 °F 97% 30.00 in 5.0 mi ESE 9.2 mph - N/A   Scattered Clouds
7:35 PM 74.5 °F - 73.8 °F 98% 29.99 in 7.0 mi ESE 8.1 mph - N/A   Scattered Clouds
7:55 PM 74.1 °F - 73.4 °F 98% 30.00 in 7.0 mi ESE 8.1 mph - N/A   Clear
8:15 PM 73.9 °F - 73.4 °F 98% 30.01 in 7.0 mi ESE 8.1 mph - N/A   Clear
8:35 PM 73.4 °F - 72.9 °F 98% 30.01 in 7.0 mi ESE 8.1 mph - N/A   Clear
8:55 PM 73.6 °F - 72.9 °F 98% 30.01 in 7.0 mi SE 6.9 mph - N/A   Clear
9:15 PM 73.4 °F - 72.9 °F 98% 30.01 in 7.0 mi ESE 6.9 mph - N/A   Clear
9:35 PM 73.6 °F - 73.2 °F 99% 30.01 in 7.0 mi SE 8.1 mph - N/A   Clear
9:55 PM 75.6 °F - 73.4 °F 93% 30.00 in 10.0 mi SSE 9.2 mph - N/A   Clear
10:15 PM 76.1 °F - 73.2 °F 91% 29.99 in 10.0 mi SSE 8.1 mph - N/A Thunderstorm Scattered Clouds
10:35 PM 75.9 °F - 73.4 °F 92% 29.98 in 5.0 mi South 12.7 mph 17.3 mph 0.04 in Rain , Thunderstorm Heavy Thunderstorms and Rain
10:55 PM 74.8 °F - 73.9 °F 97% 29.99 in 1.8 mi South 13.8 mph 19.6 mph 0.31 in Rain , Thunderstorm Heavy Thunderstorms and Rain
11:15 PM 71.8 °F - 70.3 °F 95% 29.99 in 2.0 mi South 18.4 mph 40.3 mph 0.15 in Rain , Thunderstorm Heavy Thunderstorms and Rain
11:35 PM 70.9 °F - 70.5 °F 99% 29.99 in 7.0 mi South 16.1 mph - 0.19 in Rain , Thunderstorm Light Thunderstorms and Rain
11:55 PM 72.5 °F - 70.2 °F 92% 29.99 in 10.0 mi SSW 9.2 mph 21.9 mph 0.19 in Thunderstorm Thunderstorm